Weather History for Rugby, ND

Change the Weather History Date:

Thursday, July 18, 2013

  Actual Average Record
Temperature  
Mean Temperature 71 °F -  
Max Temperature 82 °F 81 °F 100 °F (1977)
Min Temperature 60 °F 56 °F 43 °F (1951)
Cooling Degree Days 6    
Growing Degree Days 21 (Base 50)    
Moisture  
Dew Point 62 °F    
Average Humidity 76    
Maximum Humidity 88    
Minimum Humidity 54    
Precipitation  
Precipitation 0.00 in - - ()
Sea Level Pressure  
Sea Level Pressure 29.86 in    
Wind  
Wind Speed 12 mph (NNW)    
Max Wind Speed 24 mph    
Max Gust Speed 40 mph    
Visibility 10 miles    
Events Rain    
Averages and records for this station are not official NWS values.
T = Trace of Precipitation, MM = Missing Value Source: NWS Daily Summary

Daily Weather History Graph

Daily Weather History Graph

Search for Another Location

Airport:

Trip Planner

Search our weather history database for the weather conditions in past years. The results will help you decide how hot, cold, wet, or windy it might be!

Date:

Astronomy

Jul. 18, 2013 Rise Set
Actual Time 5:58 AM CDT 9:33 PM CDT
Civil Twilight 5:18 AM CDT 10:12 PM CDT
Nautical Twilight 4:26 AM CDT 11:05 PM CDT
Astronomical Twilight 3:12 AM CDT 12:17 AM CDT
Moon 5:30 PM CDT (7/18) 1:54 AM CDT (7/18)
Length of Visible Light 16h 53m
Length of Day
15h 35m
Waxing Gibbous, 77% of the Moon is Illuminated
Jul 18
Waxing Gibbous
Jul 22
Full
Jul 29
Last Quarter
Aug 6
New
Aug 14
First Quarter

Hourly Weather History & Observations

Time (CDT) Temp. Heat Index Dew Point Humidity Pressure Visibility Wind Dir Wind Speed Gust Speed Precip Events Conditions
12:15 AM 66.2 °F - 57.2 °F 73% 30.03 in 10.0 mi East 10.4 mph - N/A   Clear
12:35 AM 66.2 °F - 57.2 °F 73% 30.03 in 10.0 mi ESE 10.4 mph - N/A   Scattered Clouds
12:55 AM 66.2 °F - 57.2 °F 73% 30.02 in 10.0 mi East 8.1 mph - N/A   Partly Cloudy
1:15 AM 66.2 °F - 57.2 °F 73% 30.01 in 10.0 mi East 8.1 mph - N/A   Partly Cloudy
1:35 AM 64.4 °F - 57.2 °F 77% 29.99 in 10.0 mi East 10.4 mph - N/A   Clear
1:55 AM 64.4 °F - 57.2 °F 77% 29.98 in 10.0 mi East 10.4 mph - N/A   Clear
2:15 AM 64.4 °F - 59.0 °F 83% 29.98 in 10.0 mi East 12.7 mph - N/A   Partly Cloudy
2:35 AM 66.2 °F - 59.0 °F 78% 29.97 in 10.0 mi East 13.8 mph - N/A   Clear
2:55 AM 64.4 °F - 59.0 °F 83% 29.96 in 10.0 mi East 12.7 mph - N/A   Partly Cloudy
3:15 AM 64.4 °F - 59.0 °F 83% 29.95 in 10.0 mi East 11.5 mph - N/A   Partly Cloudy
3:35 AM 64.4 °F - 59.0 °F 83% 29.94 in 10.0 mi East 13.8 mph - N/A   Partly Cloudy
3:55 AM 62.6 °F - 59.0 °F 88% 29.93 in 10.0 mi East 13.8 mph 20.7 mph N/A   Scattered Clouds
4:15 AM 62.6 °F - 59.0 °F 88% 29.92 in 10.0 mi East 13.8 mph 17.3 mph N/A   Scattered Clouds
4:35 AM 62.6 °F - 59.0 °F 88% 29.92 in 10.0 mi East 15.0 mph - N/A   Mostly Cloudy
4:55 AM 62.6 °F - 59.0 °F 88% 29.92 in 10.0 mi ENE 13.8 mph 20.7 mph N/A   Mostly Cloudy
5:15 AM 62.6 °F - 59.0 °F 88% 29.94 in 10.0 mi NNE 16.1 mph - N/A   Partly Cloudy
5:35 AM 60.8 °F - 57.2 °F 88% 29.92 in 10.0 mi ENE 16.1 mph 21.9 mph N/A   Clear
5:55 AM 60.8 °F - 57.2 °F 88% 29.92 in 10.0 mi ENE 16.1 mph 23.0 mph N/A   Clear
6:15 AM 60.8 °F - 57.2 °F 88% 29.92 in 10.0 mi ENE 16.1 mph 23.0 mph N/A   Clear
6:35 AM 60.8 °F - 57.2 °F 88% 29.91 in 10.0 mi East 13.8 mph 21.9 mph N/A   Clear
6:55 AM 60.8 °F - 57.2 °F 88% 29.90 in 10.0 mi East 17.3 mph 21.9 mph N/A   Clear
7:15 AM 62.6 °F - 57.2 °F 82% 29.90 in 10.0 mi East 15.0 mph 20.7 mph N/A   Clear
7:35 AM 62.6 °F - 57.2 °F 82% 29.88 in 10.0 mi East 17.3 mph - N/A   Clear
7:55 AM 62.6 °F - 57.2 °F 82% 29.88 in 10.0 mi East 11.5 mph 20.7 mph N/A   Clear
8:15 AM 64.4 °F - 59.0 °F 83% 29.88 in 10.0 mi ESE 15.0 mph - N/A Rain Light Rain
8:35 AM 64.4 °F - 59.0 °F 83% 29.87 in 10.0 mi ESE 12.7 mph - N/A   Clear
8:55 AM 66.2 °F - 59.0 °F 78% 29.88 in 10.0 mi ESE 11.5 mph - N/A   Clear
9:15 AM 66.2 °F - 60.8 °F 83% 29.87 in 10.0 mi ESE 8.1 mph - N/A   Clear
9:35 AM 66.2 °F - 60.8 °F 83% 29.87 in 10.0 mi SE 6.9 mph - N/A   Clear
9:55 AM 68.0 °F - 62.6 °F 83% 29.86 in 10.0 mi SE 5.8 mph - N/A   Clear
10:15 AM 68.0 °F - 62.6 °F 83% 29.85 in 10.0 mi ESE 8.1 mph - N/A   Clear
10:35 AM 69.8 °F - 62.6 °F 78% 29.87 in 10.0 mi Calm Calm - N/A   Partly Cloudy
10:55 AM 69.8 °F - 62.6 °F 78% 29.86 in 10.0 mi Calm Calm - N/A   Scattered Clouds
11:15 AM 69.8 °F - 64.4 °F 83% 29.86 in 10.0 mi WNW 8.1 mph - N/A   Mostly Cloudy
11:35 AM 71.6 °F - 64.4 °F 78% 29.86 in 10.0 mi WNW 8.1 mph - N/A   Mostly Cloudy
11:55 AM 71.6 °F - 64.4 °F 78% 29.86 in 10.0 mi WNW 11.5 mph - N/A   Mostly Cloudy
12:15 PM 71.6 °F - 64.4 °F 78% 29.86 in 10.0 mi NW 10.4 mph - N/A   Mostly Cloudy
12:35 PM 73.4 °F - 64.4 °F 73% 29.85 in 10.0 mi WNW 8.1 mph - N/A   Mostly Cloudy
12:55 PM 73.4 °F - 64.4 °F 73% 29.85 in 10.0 mi NW 13.8 mph 17.3 mph N/A   Mostly Cloudy
1:15 PM 73.4 °F - 64.4 °F 73% 29.85 in 10.0 mi WNW 10.4 mph - N/A   Mostly Cloudy
1:35 PM 75.2 °F - 66.2 °F 73% 29.83 in 10.0 mi West 6.9 mph - N/A   Partly Cloudy
1:55 PM 75.2 °F - 66.2 °F 73% 29.83 in 10.0 mi WNW 8.1 mph - N/A   Partly Cloudy
2:15 PM 75.2 °F - 66.2 °F 73% 29.83 in 10.0 mi WNW 8.1 mph - N/A   Partly Cloudy
2:35 PM 75.2 °F - 66.2 °F 73% 29.82 in 10.0 mi WNW 8.1 mph - N/A   Partly Cloudy
2:55 PM 77.0 °F - 66.2 °F 69% 29.81 in 10.0 mi West 8.1 mph - N/A   Clear
3:15 PM 77.0 °F - 66.2 °F 69% 29.81 in 10.0 mi West 8.1 mph - N/A   Clear
3:35 PM 77.0 °F - 68.0 °F 74% 29.81 in 10.0 mi West 9.2 mph - N/A   Clear
3:55 PM 77.0 °F - 68.0 °F 74% 29.80 in 10.0 mi WNW 12.7 mph - N/A   Partly Cloudy
4:15 PM 77.0 °F - 68.0 °F 74% 29.80 in 10.0 mi West 8.1 mph - N/A   Scattered Clouds
5:35 PM 80.6 °F 83.2 °F 68.0 °F 65% 29.77 in 10.0 mi West 13.8 mph - N/A   Clear
5:55 PM 82.4 °F 86.3 °F 69.8 °F 66% 29.76 in 10.0 mi West 10.4 mph - N/A   Clear
6:15 PM 82.4 °F 86.3 °F 69.8 °F 66% 29.76 in 10.0 mi West 15.0 mph 19.6 mph N/A   Clear
6:35 PM 82.4 °F 86.3 °F 69.8 °F 66% 29.75 in 10.0 mi West 15.0 mph - N/A   Partly Cloudy
6:55 PM 82.4 °F 84.6 °F 66.2 °F 58% 29.75 in 10.0 mi West 18.4 mph 27.6 mph N/A   Clear
7:15 PM 82.4 °F 83.9 °F 64.4 °F 54% 29.75 in 10.0 mi West 16.1 mph 23.0 mph N/A   Clear
7:35 PM 82.4 °F 83.9 °F 64.4 °F 54% 29.75 in 10.0 mi West 12.7 mph - N/A   Clear
7:55 PM 80.6 °F 82.3 °F 64.4 °F 58% 29.74 in 10.0 mi West 15.0 mph 20.7 mph N/A   Clear
8:15 PM 80.6 °F 82.3 °F 64.4 °F 58% 29.74 in 10.0 mi West 12.7 mph 20.7 mph N/A   Clear
8:35 PM 77.0 °F - 64.4 °F 65% 29.75 in 10.0 mi West 12.7 mph 18.4 mph N/A   Clear
8:55 PM 77.0 °F - 62.6 °F 61% 29.77 in 10.0 mi NW 24.2 mph 40.3 mph N/A   Partly Cloudy
9:15 PM 73.4 °F - 62.6 °F 69% 29.78 in 10.0 mi NW 16.1 mph 28.8 mph N/A   Clear
9:35 PM 71.6 °F - 62.6 °F 73% 29.78 in 10.0 mi WNW 15.0 mph 20.7 mph N/A   Clear
9:55 PM 71.6 °F - 62.6 °F 73% 29.79 in 10.0 mi WNW 15.0 mph 20.7 mph N/A   Clear
10:15 PM 71.6 °F - 62.6 °F 73% 29.80 in 10.0 mi WNW 18.4 mph 23.0 mph N/A   Clear
10:35 PM 71.6 °F - 60.8 °F 69% 29.81 in 10.0 mi WNW 18.4 mph 26.5 mph N/A   Clear
10:55 PM 68.0 °F - 60.8 °F 78% 29.82 in 10.0 mi NW 17.3 mph 24.2 mph N/A   Clear
11:15 PM 68.0 °F - 62.6 °F 83% 29.83 in 10.0 mi NW 11.5 mph - N/A   Clear
11:35 PM 66.2 °F - 62.6 °F 88% 29.84 in 10.0 mi NW 13.8 mph - N/A   Clear
11:55 PM 66.2 °F - 60.8 °F 83% 29.85 in 10.0 mi NW 12.7 mph - N/A   Clear